Weather History for KBMG - February, 2014

Change the Weather History Date:

Thursday, February 27, 2014

  Actual Average Record
Temperature  
Mean Temperature 18 °F 36 °F  
Max Temperature 25 °F 47 °F 66 °F (2011)
Min Temperature 11 °F 26 °F -9 °F (2015)
Degree Days  
Heating Degree Days 47 28  
Month to date heating degree days 1080 865  
Since 1 July heating degree days 4522 4040  
Cooling Degree Days 0 0  
Month to date cooling degree days 0 0  
Year to date cooling degree days 0 0  
Moisture  
Dew Point 0 °F    
Average Humidity 47    
Maximum Humidity 62    
Minimum Humidity 31    
Precipitation  
Precipitation 0.00 in 0.08 in 0.96 in (1999)
Month to date precipitation 2.33 2.68  
Year to date precipitation 4.65 5.99  
Sea Level Pressure  
Sea Level Pressure 30.03 in    
Wind  
Wind Speed 10 mph (WNW)    
Max Wind Speed 22 mph    
Max Gust Speed 35 mph    
Visibility 10 miles    
Events      
T = Trace of Precipitation, MM = Missing Value Source: NWS Daily Summary

Daily Weather History Graph

Daily Weather History Graph

Search for Another Location

Airport or City:

Trip Planner

Search our weather history database for the weather conditions in past years. The results will help you decide how hot, cold, wet, or windy it might be!

Date:

Astronomy

Feb. 27, 2014 Rise Set
Actual Time 7:21 AM EST 6:36 PM EST
Civil Twilight 6:55 AM EST 7:03 PM EST
Nautical Twilight 6:24 AM EST 7:34 PM EST
Astronomical Twilight 5:53 AM EST 8:05 PM EST
Moon 5:53 AM EST (2/27) 5:02 PM EST (2/27)
Length of Visible Light 12h 08m
Length of Day
11h 14m
Waning Crescent, 4% of the Moon is Illuminated
Feb 27
Waning Crescent
Mar 1
New
Mar 8
First Quarter
Mar 16
Full
Mar 23
Last Quarter

Hourly Weather History & Observations

Time (EST) Temp. Windchill Dew Point Humidity Pressure Visibility Wind Dir Wind Speed Gust Speed Precip Events Conditions
12:53 AM 18.0 °F 6.1 °F 3.0 °F 52% 29.91 in 10.0 mi WSW 10.4 mph - N/A   Clear
1:53 AM 19.9 °F 5.7 °F 3.0 °F 48% 29.87 in 10.0 mi WSW 16.1 mph 24.2 mph N/A   Clear
2:53 AM 19.9 °F 6.2 °F 3.9 °F 50% 29.85 in 10.0 mi West 15.0 mph 24.2 mph N/A   Clear
3:53 AM 19.9 °F 7.3 °F 5.0 °F 52% 29.84 in 10.0 mi West 12.7 mph 20.7 mph N/A   Clear
4:53 AM 19.9 °F 8.6 °F 7.0 °F 57% 29.83 in 10.0 mi West 10.4 mph - N/A   Clear
5:53 AM 21.0 °F 7.1 °F 8.1 °F 57% 29.85 in 10.0 mi West 16.1 mph 23.0 mph N/A   Clear
6:53 AM 21.0 °F 9.3 °F 9.0 °F 60% 29.88 in 10.0 mi WNW 11.5 mph 20.7 mph N/A   Mostly Cloudy
7:53 AM 19.9 °F 7.3 °F 8.1 °F 60% 29.92 in 10.0 mi WNW 12.7 mph 24.2 mph N/A   Mostly Cloudy
8:53 AM 18.0 °F 6.1 °F -2.9 °F 40% 29.98 in 10.0 mi NW 10.4 mph 19.6 mph N/A   Clear
9:53 AM 17.1 °F 4.3 °F -7.1 °F 34% 30.03 in 10.0 mi NW 11.5 mph 23.0 mph N/A   Clear
10:53 AM 18.0 °F 5.4 °F -5.1 °F 36% 30.07 in 10.0 mi NW 11.5 mph 18.4 mph N/A   Clear
11:53 AM 19.0 °F 7.5 °F -6.0 °F 33% 30.09 in 10.0 mi NW 10.4 mph 18.4 mph N/A   Clear
12:53 PM 21.0 °F 16.2 °F -4.0 °F 33% 30.09 in 10.0 mi Variable 3.5 mph - N/A   Clear
1:53 PM 23.0 °F 13.1 °F -4.0 °F 31% 30.09 in 10.0 mi West 9.2 mph - N/A   Clear
2:53 PM 23.0 °F 11.7 °F -4.0 °F 31% 30.09 in 10.0 mi WNW 11.5 mph - N/A   Clear
3:53 PM 24.1 °F 14.4 °F -2.9 °F 31% 30.09 in 10.0 mi West 9.2 mph - N/A   Clear
4:53 PM 23.0 °F 13.9 °F -4.0 °F 31% 30.09 in 10.0 mi WNW 8.1 mph - N/A   Clear
5:53 PM 21.9 °F 14.5 °F -2.9 °F 34% 30.10 in 10.0 mi WNW 5.8 mph - N/A   Clear
6:53 PM 19.0 °F 13.9 °F -2.0 °F 40% 30.13 in 10.0 mi WNW 3.5 mph - N/A   Clear
7:53 PM 18.0 °F 11.1 °F -0.9 °F 44% 30.15 in 10.0 mi NNW 4.6 mph - N/A   Clear
8:53 PM 15.1 °F 3.3 °F 1.0 °F 54% 30.16 in 10.0 mi North 9.2 mph - N/A   Clear
9:53 PM 14.0 °F 2.9 °F 1.0 °F 56% 30.19 in 10.0 mi North 8.1 mph - N/A   Clear
10:53 PM 12.0 °F 4.1 °F -0.9 °F 56% 30.19 in 10.0 mi NNE 4.6 mph - N/A   Clear
11:53 PM 10.9 °F 4.7 °F -2.0 °F 56% 30.19 in 10.0 mi NNE 3.5 mph - N/A   Clear